Hourly Weather Otvernica

Today, 30 July, Friday

Time Temperature Precipitation Wind Pressure Humidity
00:00 +18°C° 0 mm 2 mps 740 mmHg 97%
01:00 +18°C° 0 mm 2 mps 740 mmHg 97%
02:00 +18°C° 0 mm 2 mps 740 mmHg 97%
03:00 +17°C° 0 mm 2 mps 740 mmHg 97%
04:00 +17°C° 0 mm 2 mps 740 mmHg 96%
05:00 +17°C° 0 mm 2 mps 740 mmHg 96%
06:00 +18°C° 0 mm 3 mps 740 mmHg 91%
07:00 +20°C° 0 mm 3 mps 740 mmHg 86%
08:00 +21°C° 0 mm 3 mps 740 mmHg 81%
09:00 +22°C° 0.1 mm 4 mps 740 mmHg 70%
10:00 +25°C° 0.1 mm 4 mps 740 mmHg 59%
11:00 +27°C° 0.1 mm 5 mps 740 mmHg 48%
12:00 +27°C° 0 mm 5 mps 740 mmHg 48%
13:00 +26°C° 0 mm 5 mps 740 mmHg 48%
14:00 +26°C° 0 mm 5 mps 740 mmHg 48%
15:00 +26°C° 0 mm 5 mps 740 mmHg 49%
16:00 +25°C° 0 mm 5 mps 740 mmHg 50%
17:00 +25°C° 0 mm 5 mps 740 mmHg 52%
18:00 +23°C° 0 mm 4 mps 740 mmHg 55%
19:00 +22°C° 0 mm 3 mps 740 mmHg 59%
20:00 +21°C° 0 mm 3 mps 740 mmHg 62%
21:00 +20°C° 0 mm 3 mps 740 mmHg 64%
22:00 +20°C° 0 mm 3 mps 740 mmHg 65%
23:00 +20°C° 0 mm 3 mps 740 mmHg 67%

Tomorrow, 31 July, Saturday

Time Temperature Precipitation Wind Pressure Humidity
00:00 +19°C° 0 mm 3 mps 740 mmHg 71%
01:00 +18°C° 0 mm 3 mps 740 mmHg 75%
02:00 +18°C° 0 mm 2 mps 740 mmHg 78%
03:00 +17°C° 0 mm 3 mps 740 mmHg 81%
04:00 +16°C° 0 mm 3 mps 740 mmHg 83%
05:00 +16°C° 0 mm 3 mps 740 mmHg 86%
06:00 +18°C° 0 mm 3 mps 740 mmHg 77%
07:00 +19°C° 0 mm 4 mps 740 mmHg 67%
08:00 +21°C° 0 mm 5 mps 741 mmHg 58%
09:00 +23°C° 0 mm 5 mps 741 mmHg 53%
10:00 +24°C° 0 mm 6 mps 741 mmHg 48%
11:00 +26°C° 0 mm 6 mps 741 mmHg 44%
12:00 +27°C° 0 mm 6 mps 741 mmHg 43%
13:00 +27°C° 0 mm 6 mps 741 mmHg 41%
14:00 +28°C° 0 mm 5 mps 741 mmHg 40%
15:00 +28°C° 0 mm 5 mps 741 mmHg 42%
16:00 +28°C° 0 mm 4 mps 741 mmHg 45%
17:00 +28°C° 0 mm 4 mps 741 mmHg 47%
18:00 +26°C° 0 mm 3 mps 741 mmHg 54%
19:00 +24°C° 0 mm 1 mps 741 mmHg 60%
20:00 +20°C° 0 mm 0 mps 741 mmHg 67%
21:00 +22°C° 0 mm 1 mps 741 mmHg 67%
22:00 +21°C° 0 mm 1 mps 741 mmHg 68%
23:00 +20°C° 0 mm 2 mps 741 mmHg 69%

Day after tomorrow, 1 August, Sunday

Time Temperature Precipitation Wind Pressure Humidity
00:00 +20°C° 0.2 mm 2 mps 741 mmHg 75%
01:00 +19°C° 0.2 mm 2 mps 741 mmHg 81%
02:00 +18°C° 0.2 mm 2 mps 741 mmHg 87%
03:00 +18°C° 0.5 mm 2 mps 741 mmHg 90%
04:00 +18°C° 0.5 mm 2 mps 741 mmHg 93%
05:00 +18°C° 0.5 mm 3 mps 741 mmHg 96%
06:00 +19°C° 0.1 mm 3 mps 741 mmHg 93%
07:00 +20°C° 0.1 mm 4 mps 741 mmHg 90%
08:00 +20°C° 0.1 mm 4 mps 741 mmHg 87%
09:00 +22°C° 0 mm 4 mps 741 mmHg 75%
10:00 +25°C° 0 mm 4 mps 741 mmHg 63%
11:00 +27°C° 0 mm 4 mps 742 mmHg 51%
12:00 +28°C° 0 mm 4 mps 742 mmHg 47%
13:00 +28°C° 0 mm 4 mps 741 mmHg 43%
14:00 +29°C° 0 mm 5 mps 741 mmHg 39%
15:00 +29°C° 0 mm 4 mps 741 mmHg 40%
16:00 +28°C° 0 mm 4 mps 741 mmHg 41%
17:00 +28°C° 0 mm 3 mps 741 mmHg 42%
18:00 +26°C° 0 mm 3 mps 741 mmHg 49%
19:00 +24°C° 0 mm 2 mps 741 mmHg 56%
20:00 +21°C° 0 mm 2 mps 741 mmHg 62%
21:00 +20°C° 0 mm 2 mps 741 mmHg 62%
22:00 +21°C° 0 mm 1 mps 741 mmHg 62%
23:00 +21°C° 0 mm 1 mps 741 mmHg 62%

2 August, Monday

Time Temperature Precipitation Wind Pressure Humidity
00:00 +20°C° 0 mm 1 mps 741 mmHg 63%
01:00 +19°C° 0 mm 2 mps 741 mmHg 64%
02:00 +18°C° 0 mm 2 mps 740 mmHg 65%
03:00 +18°C° 0.1 mm 2 mps 740 mmHg 70%
04:00 +18°C° 0.1 mm 2 mps 740 mmHg 75%
05:00 +17°C° 0.1 mm 2 mps 740 mmHg 80%
06:00 +18°C° 0.2 mm 2 mps 739 mmHg 83%
07:00 +19°C° 0.2 mm 3 mps 738 mmHg 85%
08:00 +20°C° 0.2 mm 4 mps 737 mmHg 88%
09:00 +21°C° 0.7 mm 5 mps 737 mmHg 84%
10:00 +23°C° 0.7 mm 5 mps 737 mmHg 80%
11:00 +24°C° 0.7 mm 6 mps 737 mmHg 75%
12:00 +26°C° 0.1 mm 6 mps 737 mmHg 72%
13:00 +26°C° 0.1 mm 6 mps 737 mmHg 68%
14:00 +26°C° 0.1 mm 6 mps 737 mmHg 64%
15:00 +24°C° 0.1 mm 6 mps 737 mmHg 66%
16:00 +23°C° 0.1 mm 7 mps 737 mmHg 68%
17:00 +22°C° 0.1 mm 7 mps 737 mmHg 71%
18:00 +20°C° 0 mm 5 mps 738 mmHg 76%
19:00 +19°C° 0 mm 4 mps 738 mmHg 82%
20:00 +17°C° 0 mm 3 mps 739 mmHg 87%
21:00 +17°C° 0 mm 3 mps 739 mmHg 88%
22:00 +17°C° 0 mm 3 mps 739 mmHg 89%
23:00 +16°C° 0 mm 3 mps 740 mmHg 90%

3 August, Tuesday

Time Temperature Precipitation Wind Pressure Humidity
00:00 +16°C° 0.1 mm 3 mps 740 mmHg 90%
01:00 +16°C° 0.1 mm 3 mps 740 mmHg 91%
02:00 +15°C° 0.1 mm 4 mps 740 mmHg 92%
03:00 +16°C° 0.2 mm 3 mps 740 mmHg 93%
04:00 +16°C° 0.2 mm 3 mps 741 mmHg 93%
05:00 +16°C° 0.2 mm 3 mps 741 mmHg 94%
06:00 +16°C° 0.2 mm 3 mps 741 mmHg 90%
07:00 +17°C° 0.2 mm 3 mps 742 mmHg 86%
08:00 +17°C° 0.2 mm 3 mps 742 mmHg 83%
09:00 +19°C° 0 mm 4 mps 742 mmHg 72%
10:00 +20°C° 0 mm 4 mps 743 mmHg 62%
11:00 +21°C° 0 mm 4 mps 743 mmHg 52%
12:00 +22°C° 0 mm 5 mps 743 mmHg 51%
13:00 +22°C° 0 mm 5 mps 743 mmHg 50%
14:00 +22°C° 0 mm 5 mps 743 mmHg 49%
15:00 +22°C° 0 mm 5 mps 743 mmHg 50%
16:00 +22°C° 0 mm 5 mps 743 mmHg 52%
17:00 +22°C° 0 mm 5 mps 743 mmHg 53%
18:00 +20°C° 0 mm 4 mps 744 mmHg 62%
19:00 +18°C° 0 mm 3 mps 744 mmHg 72%
20:00 +16°C° 0 mm 3 mps 744 mmHg 81%
21:00 +16°C° 0 mm 2 mps 745 mmHg 84%
22:00 +15°C° 0 mm 2 mps 745 mmHg 87%
23:00 +14°C° 0 mm 2 mps 745 mmHg 91%

4 August, Wednesday

Time Temperature Precipitation Wind Pressure Humidity
00:00 +14°C° 0 mm 2 mps 745 mmHg 91%
01:00 +14°C° 0 mm 2 mps 746 mmHg 92%
02:00 +13°C° 0 mm 2 mps 746 mmHg 92%
03:00 +13°C° 0 mm 2 mps 746 mmHg 91%
04:00 +13°C° 0 mm 1 mps 746 mmHg 91%
05:00 +13°C° 0 mm 1 mps 746 mmHg 90%
06:00 +14°C° 0 mm 1 mps 747 mmHg 81%
07:00 +16°C° 0 mm 1 mps 747 mmHg 73%
08:00 +19°C° 0 mm 1 mps 747 mmHg 64%
09:00 +21°C° 0 mm 1 mps 747 mmHg 58%
10:00 +23°C° 0 mm 1 mps 747 mmHg 51%
11:00 +22°C° 0 mm 0 mps 747 mmHg 44%
12:00 +23°C° 0 mm 0 mps 747 mmHg 43%
13:00 +25°C° 0 mm 1 mps 747 mmHg 42%
14:00 +26°C° 0 mm 1 mps 746 mmHg 40%
15:00 +25°C° 0 mm 1 mps 746 mmHg 45%
16:00 +24°C° 0 mm 1 mps 746 mmHg 50%
17:00 +23°C° 0 mm 2 mps 746 mmHg 55%
18:00 +21°C° 0 mm 2 mps 746 mmHg 57%
19:00 +20°C° 0 mm 2 mps 746 mmHg 58%
20:00 +20°C° 0 mm 2 mps 746 mmHg 60%
21:00 +19°C° 0 mm 2 mps 746 mmHg 60%
22:00 +19°C° 0 mm 2 mps 746 mmHg 60%
23:00 +18°C° 0 mm 2 mps 746 mmHg 60%
Show more